This is the latest recevied weather packets stored in our database for station/object K4AMF. If no packets are shown the sender has not sent any weather packets the latest 10 day(s).
| Time | Temp. | Humidity | Pressure | Rain* | Wind** | Luminosity | Snow |
|---|---|---|---|---|---|---|---|
| 1777487218 | 31.67° C | 54% | 1010.3 hPa | 0 mm | - | 798 W/m² | - |
| 1777486914 | 31.11° C | 53% | 1010.1 hPa | 0 mm | - | 436 W/m² | - |
| 1777486610 | 31.67° C | 56% | 1010.3 hPa | 0 mm | - | 369 W/m² | - |
| 1777486309 | 31.11° C | 57% | 1010.3 hPa | 0 mm | - | 758 W/m² | - |
| 1777486006 | 30.56° C | 58% | 1010.5 hPa | 0 mm | - | 741 W/m² | - |
| 1777485702 | 30° C | 59% | 1010.8 hPa | 0 mm | - | 654 W/m² | - |
| 1777485397 | 29.44° C | 60% | 1011.1 hPa | 0 mm | - | 349 W/m² | - |
| 1777485093 | 30° C | 61% | 1011 hPa | 0 mm | - | 287 W/m² | - |
| 1777484791 | 30° C | 61% | 1011.2 hPa | 0 mm | - | 301 W/m² | - |
| 1777484487 | 30° C | 62% | 1011.2 hPa | 0 mm | - | 300 W/m² | - |
| 1777484185 | 30° C | 61% | 1011.1 hPa | 0 mm | - | 462 W/m² | - |
| 1777483880 | 30° C | 62% | 1011.6 hPa | 0 mm | - | 304 W/m² | - |
| 1777483577 | 30° C | 61% | 1011.5 hPa | 0 mm | - | 429 W/m² | - |
| 1777483277 | 30.56° C | 60% | 1011.4 hPa | 0 mm | - | 592 W/m² | - |
| 1777482973 | 30.56° C | 60% | 1011.5 hPa | 0 mm | - | 712 W/m² | - |
| 1777482669 | 30.56° C | 60% | 1011.7 hPa | 0 mm | - | 474 W/m² | - |
| 1777482366 | 30.56° C | 59% | 1011.7 hPa | 0 mm | - | 299 W/m² | - |
| 1777482064 | 30.56° C | 60% | 1011.7 hPa | 0 mm | - | 774 W/m² | - |
| 1777481762 | 30.56° C | 59% | 1011.8 hPa | 0 mm | - | 791 W/m² | - |
| 1777481459 | 30.56° C | 60% | 1011.9 hPa | 0 mm | - | 787 W/m² | - |
| 1777481154 | 30° C | 59% | 1012.1 hPa | 0 mm | - | 799 W/m² | - |
| 1777480851 | 29.44° C | 61% | 1012.2 hPa | 0 mm | - | 749 W/m² | - |
| 1777480548 | 30° C | 61% | 1012 hPa | 0 mm | - | 739 W/m² | - |
| 1777480245 | 29.44° C | 62% | 1012.3 hPa | 0 mm | - | 704 W/m² | - |
| 1777479941 | 30° C | 59% | 1012.3 hPa | 0 mm | - | 675 W/m² | - |
* Rain latest hour (hover to see other rain measurements)
** Current wind speed in m/s (hover to see current wind gust speed)